User: anonymous   Login
Location: 02324
(41.9834°N, 70.9022°W)
Time: 03:20:06
(UTC-04:00)
Language:

Resurs 01 Rocket - Orbit

View from above orbital plane
View from above orbital plane
View from above satellite
View from above satellite

Ground track
Ground track

The orbit data is extracted from the following two-line orbital elements,

1 23343U 94074B   17179.73916865 -.00000019 +00000-0 +48432-5 0  9996
2 23343 098.1521 216.9402 0007812 044.7155 091.4829 14.76701675218324
Epoch (UTC): 28 June 2017 17:44:24
Eccentricity: 0.0007812
inclination: 98.1521°
perigee height: 634 km
apogee height: 645 km
right ascension of ascending node: 216.9402°
argument of perigee: 44.7155°
revolutions per day: 14.76701675
mean anomaly at epoch: 91.4829°
orbit number at epoch: 21832

The dashed part of the orbit path shows where the satellite is in the earth's shadow,  

DLR